BTK6134 WAGI-WARR

Flight info

Callsign BTK6134
Flight time 1h 1m
Altitude 31000
Route SUMDI
Aircraft B738/M-SDE2E3FGHIRWXY/LB1

Departure

Time 2026-04-24 03:54
Airport Iskandar Airport (WAGI)

Arrival

Time 2026-04-24 04:55
Airport Juanda International Airport (WARR)
Time Latitude Longitude Altitude Speed Heading
2026-04-24 03:43 -2.70277 111.66875 82 ft 0 kts 223°
2026-04-24 03:45 -2.70277 111.66874 82 ft 0 kts 223°
2026-04-24 03:46 -2.70278 111.66874 82 ft 0 kts 222°
2026-04-24 03:46 -2.70281 111.66869 82 ft 0 kts 240°
2026-04-24 03:47 -2.70281 111.66866 82 ft 0 kts 289°
2026-04-24 03:47 -2.70276 111.66864 82 ft 1 kts 336°
2026-04-24 03:47 -2.70261 111.66858 82 ft 2 kts 336°
2026-04-24 03:47 -2.70236 111.66843 82 ft 6 kts 321°
2026-04-24 03:48 -2.70188 111.66835 82 ft 8 kts 25°
2026-04-24 03:48 -2.70131 111.66872 82 ft 10 kts
2026-04-24 03:48 -2.70071 111.66830 82 ft 11 kts 314°
2026-04-24 03:48 -2.69999 111.66748 82 ft 18 kts 308°
2026-04-24 03:49 -2.69934 111.66642 82 ft 16 kts 302°
2026-04-24 03:49 -2.69916 111.66666 82 ft 10 kts 110°
2026-04-24 03:49 -2.69933 111.66688 82 ft 0 kts 132°
2026-04-24 03:53 -2.69964 111.66722 82 ft 25 kts 131°
2026-04-24 03:53 -2.70296 111.67084 82 ft 112 kts 132°
2026-04-24 03:54 -2.70997 111.67852 112 ft 178 kts 131°
2026-04-24 03:54 -2.71946 111.68794 662 ft 205 kts 134°
2026-04-24 03:54 -2.72949 111.69843 1496 ft 216 kts 128°
2026-04-24 03:54 -2.73958 111.70994 2233 ft 227 kts 129°
2026-04-24 03:55 -2.75079 111.72182 2815 ft 245 kts 131°
2026-04-24 03:55 -2.76307 111.73425 3498 ft 259 kts 131°
2026-04-24 03:55 -2.77613 111.74741 4234 ft 270 kts 131°
2026-04-24 03:55 -2.78931 111.76074 5169 ft 272 kts 131°
2026-04-24 03:56 -2.80329 111.77357 6028 ft 279 kts 144°
2026-04-24 03:56 -2.82174 111.78027 6882 ft 289 kts 173°
2026-04-24 03:56 -2.84187 111.77776 7729 ft 296 kts 193°
2026-04-24 03:56 -2.86159 111.77138 8521 ft 301 kts 197°
2026-04-24 03:57 -2.88164 111.76429 9335 ft 305 kts 197°
2026-04-24 03:57 -2.90188 111.75742 10106 ft 309 kts 197°
2026-04-24 03:57 -2.92292 111.75068 10654 ft 322 kts 196°
2026-04-24 03:57 -2.94443 111.74402 11130 ft 335 kts 195°
2026-04-24 03:58 -2.96759 111.73695 11586 ft 350 kts 195°
2026-04-24 03:58 -2.99132 111.72971 12235 ft 356 kts 195°
2026-04-24 03:58 -3.01532 111.72236 13038 ft 357 kts 195°
2026-04-24 03:58 -3.03930 111.71500 13722 ft 361 kts 196°
2026-04-24 03:59 -3.06353 111.70755 14394 ft 366 kts 195°
2026-04-24 03:59 -3.08765 111.70013 15076 ft 369 kts 195°
2026-04-24 03:59 -3.11265 111.69246 15704 ft 373 kts 196°
2026-04-24 03:59 -3.13775 111.68476 16305 ft 379 kts 195°
2026-04-24 04:00 -3.16308 111.67700 16940 ft 382 kts 195°
2026-04-24 04:00 -3.18850 111.66921 17549 ft 385 kts 195°
2026-04-24 04:00 -3.21414 111.66134 18175 ft 388 kts 195°
2026-04-24 04:00 -3.24019 111.65334 18795 ft 389 kts 195°
2026-04-24 04:01 -3.26638 111.64529 19298 ft 395 kts 195°
2026-04-24 04:01 -3.29302 111.63713 19914 ft 396 kts 195°
2026-04-24 04:01 -3.31956 111.62900 20412 ft 401 kts 195°
2026-04-24 04:01 -3.34661 111.62071 20971 ft 403 kts 195°
2026-04-24 04:02 -3.37350 111.61246 21474 ft 406 kts 195°
2026-04-24 04:02 -3.40081 111.60407 21961 ft 410 kts 195°
2026-04-24 04:02 -3.42816 111.59566 22476 ft 412 kts 195°
2026-04-24 04:02 -3.45575 111.58718 22953 ft 415 kts 195°
2026-04-24 04:03 -3.48344 111.57867 23413 ft 418 kts 195°
2026-04-24 04:03 -3.51163 111.57001 23903 ft 421 kts 195°
2026-04-24 04:03 -3.53998 111.56131 24388 ft 423 kts 195°
2026-04-24 04:03 -3.56811 111.55267 24803 ft 426 kts 195°
2026-04-24 04:04 -3.59653 111.54394 25281 ft 428 kts 195°
2026-04-24 04:04 -3.62549 111.53506 25674 ft 432 kts 195°
2026-04-24 04:04 -3.65416 111.52625 26122 ft 433 kts 196°
2026-04-24 04:04 -3.68335 111.51729 26513 ft 437 kts 196°
2026-04-24 04:05 -3.71247 111.50834 26884 ft 440 kts 196°
2026-04-24 04:05 -3.74214 111.49922 27296 ft 442 kts 196°
2026-04-24 04:05 -3.77178 111.49011 27687 ft 444 kts 196°
2026-04-24 04:05 -3.80121 111.48107 28069 ft 446 kts 196°
2026-04-24 04:06 -3.83095 111.47193 28437 ft 448 kts 196°
2026-04-24 04:06 -3.86104 111.46268 28797 ft 451 kts 196°
2026-04-24 04:06 -3.89134 111.45337 29143 ft 454 kts 196°
2026-04-24 04:06 -3.92176 111.44402 29471 ft 457 kts 196°
2026-04-24 04:07 -3.95249 111.43458 29808 ft 459 kts 196°
2026-04-24 04:07 -3.98327 111.42511 30150 ft 462 kts 196°
2026-04-24 04:07 -4.01418 111.41559 30452 ft 465 kts 196°
2026-04-24 04:07 -4.04535 111.40599 30773 ft 467 kts 196°
2026-04-24 04:08 -4.07669 111.39635 30837 ft 472 kts 196°
2026-04-24 04:08 -4.13954 111.37700 30841 ft 468 kts 196°
2026-04-24 04:09 -4.20194 111.35780 30837 ft 465 kts 196°
2026-04-24 04:09 -4.26450 111.33855 30840 ft 467 kts 196°
2026-04-24 04:10 -4.32708 111.31930 30843 ft 466 kts 196°
2026-04-24 04:10 -4.38904 111.30022 30845 ft 467 kts 196°
2026-04-24 04:11 -4.48268 111.27137 30843 ft 467 kts 196°
2026-04-24 04:11 -4.54509 111.25254 30843 ft 466 kts 194°
2026-04-24 04:12 -4.60920 111.24497 30844 ft 462 kts 173°
2026-04-24 04:12 -4.64132 111.25113 30847 ft 461 kts 162°
2026-04-24 04:12 -4.67130 111.26241 30849 ft 459 kts 154°
2026-04-24 04:13 -4.72811 111.29168 30842 ft 459 kts 149°
2026-04-24 04:13 -4.78362 111.32377 30844 ft 457 kts 148°
2026-04-24 04:14 -4.83867 111.35609 30843 ft 457 kts 148°
2026-04-24 04:14 -4.89383 111.38822 30844 ft 457 kts 148°
2026-04-24 04:15 -4.94911 111.42019 30843 ft 457 kts 148°
2026-04-24 04:15 -5.00469 111.45225 30843 ft 457 kts 148°
2026-04-24 04:16 -5.06005 111.48415 30842 ft 457 kts 149°
2026-04-24 04:16 -5.11511 111.51589 30843 ft 457 kts 148°
2026-04-24 04:17 -5.17051 111.54782 30843 ft 457 kts 148°
2026-04-24 04:17 -5.22567 111.57963 30841 ft 457 kts 148°
2026-04-24 04:18 -5.28117 111.61163 30843 ft 457 kts 148°
2026-04-24 04:18 -5.33656 111.64357 30842 ft 457 kts 148°
2026-04-24 04:19 -5.39197 111.67553 30843 ft 457 kts 148°
2026-04-24 04:19 -5.44742 111.70750 30843 ft 457 kts 148°
2026-04-24 04:20 -5.50304 111.73959 30844 ft 458 kts 148°
2026-04-24 04:20 -5.55850 111.77159 30841 ft 457 kts 148°
2026-04-24 04:21 -5.61389 111.80357 30838 ft 456 kts 148°
2026-04-24 04:21 -5.66901 111.83541 30835 ft 456 kts 149°
2026-04-24 04:22 -5.72416 111.86726 30840 ft 457 kts 149°
2026-04-24 04:22 -5.77943 111.89918 30839 ft 455 kts 149°
2026-04-24 04:23 -5.83452 111.93100 30835 ft 455 kts 149°
2026-04-24 04:23 -5.88887 111.96240 30606 ft 443 kts 149°
2026-04-24 04:24 -5.91561 111.97784 30200 ft 437 kts 149°
2026-04-24 04:24 -5.94215 111.99319 29657 ft 434 kts 150°
2026-04-24 04:24 -5.96805 112.00818 29083 ft 433 kts 150°
2026-04-24 04:24 -5.99409 112.02326 28492 ft 432 kts 150°
2026-04-24 04:25 -6.02019 112.03837 27903 ft 430 kts 150°
2026-04-24 04:25 -6.04614 112.05338 27309 ft 430 kts 150°
2026-04-24 04:25 -6.07230 112.06850 26679 ft 426 kts 150°
2026-04-24 04:25 -6.09749 112.08308 26119 ft 418 kts 150°
2026-04-24 04:26 -6.12240 112.09749 25584 ft 413 kts 149°
2026-04-24 04:26 -6.14767 112.11213 24955 ft 413 kts 149°
2026-04-24 04:26 -6.17255 112.12654 24376 ft 412 kts 149°
2026-04-24 04:26 -6.19738 112.14092 23770 ft 410 kts 149°
2026-04-24 04:27 -6.22204 112.15519 23196 ft 402 kts 149°
2026-04-24 04:27 -6.24591 112.16900 22646 ft 394 kts 149°
2026-04-24 04:27 -6.26950 112.18265 22090 ft 386 kts 149°
2026-04-24 04:27 -6.29268 112.19607 21547 ft 379 kts 149°
2026-04-24 04:28 -6.31555 112.20933 21012 ft 377 kts 148°
2026-04-24 04:28 -6.33836 112.22256 20462 ft 385 kts 148°
2026-04-24 04:28 -6.36172 112.23611 19888 ft 387 kts 148°
2026-04-24 04:28 -6.38498 112.24958 19331 ft 387 kts 148°
2026-04-24 04:29 -6.40847 112.26320 18752 ft 387 kts 148°
2026-04-24 04:29 -6.43185 112.27674 18194 ft 386 kts 148°
2026-04-24 04:29 -6.45512 112.29024 17629 ft 386 kts 148°
2026-04-24 04:29 -6.47829 112.30368 17065 ft 385 kts 148°
2026-04-24 04:30 -6.50163 112.31722 16492 ft 385 kts 148°
2026-04-24 04:30 -6.52497 112.33076 15919 ft 384 kts 148°
2026-04-24 04:30 -6.54791 112.34405 15342 ft 377 kts 148°
2026-04-24 04:30 -6.57048 112.35712 14783 ft 369 kts 148°
2026-04-24 04:31 -6.59261 112.36995 14243 ft 361 kts 148°
2026-04-24 04:31 -6.61433 112.38255 13712 ft 353 kts 148°
2026-04-24 04:31 -6.63547 112.39482 13179 ft 346 kts 148°
2026-04-24 04:31 -6.65596 112.40672 12672 ft 339 kts 148°
2026-04-24 04:32 -6.67651 112.41867 12153 ft 332 kts 148°
2026-04-24 04:32 -6.69615 112.43008 11673 ft 326 kts 148°
2026-04-24 04:32 -6.71596 112.44159 11415 ft 323 kts 148°
2026-04-24 04:32 -6.73517 112.45274 11264 ft 312 kts 148°
2026-04-24 04:33 -6.75389 112.46359 11145 ft 301 kts 148°
2026-04-24 04:33 -6.77235 112.47288 11024 ft 292 kts 157°
2026-04-24 04:33 -6.79195 112.47799 10731 ft 292 kts 170°
2026-04-24 04:33 -6.81228 112.48013 10367 ft 292 kts 174°
2026-04-24 04:34 -6.83274 112.48162 10007 ft 291 kts 173°
2026-04-24 04:34 -6.85291 112.48333 9656 ft 285 kts 173°
2026-04-24 04:34 -6.87263 112.48534 9319 ft 278 kts 172°
2026-04-24 04:34 -6.89178 112.48751 8985 ft 272 kts 171°
2026-04-24 04:35 -6.91067 112.48972 8657 ft 269 kts 171°
2026-04-24 04:35 -6.92946 112.49196 8329 ft 274 kts 171°
2026-04-24 04:35 -6.94852 112.49422 7996 ft 275 kts 171°
2026-04-24 04:35 -6.96728 112.49641 7662 ft 270 kts 171°
2026-04-24 04:36 -6.98570 112.49800 7470 ft 260 kts 178°
2026-04-24 04:36 -7.00378 112.49445 7487 ft 264 kts 206°
2026-04-24 04:36 -7.01778 112.48227 7482 ft 270 kts 238°
2026-04-24 04:36 -7.02445 112.46466 7476 ft 268 kts 264°
2026-04-24 04:37 -7.02441 112.44612 7458 ft 263 kts 284°
2026-04-24 04:37 -7.01714 112.42966 7458 ft 257 kts 314°
2026-04-24 04:37 -7.00321 112.41896 7482 ft 252 kts 338°
2026-04-24 04:37 -6.98644 112.41375 7459 ft 249 kts 354°
2026-04-24 04:38 -6.96953 112.41164 7457 ft 247 kts 357°
2026-04-24 04:38 -6.95237 112.40997 7454 ft 247 kts 357°
2026-04-24 04:38 -6.93544 112.40821 7457 ft 247 kts 356°
2026-04-24 04:38 -6.91824 112.40625 7456 ft 247 kts 356°
2026-04-24 04:39 -6.90133 112.40426 7454 ft 246 kts 356°
2026-04-24 04:39 -6.88410 112.40221 7460 ft 246 kts 356°
2026-04-24 04:39 -6.86706 112.40149 7462 ft 245 kts
2026-04-24 04:39 -6.85098 112.40691 7467 ft 241 kts 37°
2026-04-24 04:40 -6.83991 112.41948 7483 ft 242 kts 63°
2026-04-24 04:40 -6.83505 112.43524 7476 ft 244 kts 83°
2026-04-24 04:40 -6.83596 112.45233 7471 ft 245 kts 101°
2026-04-24 04:40 -6.84230 112.46830 7466 ft 250 kts 122°
2026-04-24 04:41 -6.85511 112.48023 7476 ft 256 kts 150°
2026-04-24 04:41 -6.87233 112.48579 7492 ft 261 kts 168°
2026-04-24 04:41 -6.89068 112.48801 7476 ft 262 kts 172°
2026-04-24 04:41 -6.90885 112.48978 7474 ft 261 kts 171°
2026-04-24 04:42 -6.92697 112.49168 7476 ft 261 kts 171°
2026-04-24 04:42 -6.94506 112.49375 7472 ft 254 kts 171°
2026-04-24 04:42 -6.96228 112.49576 7486 ft 238 kts 170°
2026-04-24 04:42 -6.97857 112.49767 7491 ft 227 kts 170°
2026-04-24 04:43 -6.99386 112.49944 7470 ft 216 kts 170°
2026-04-24 04:43 -7.00865 112.50113 7495 ft 210 kts 170°
2026-04-24 04:43 -7.02325 112.50279 7470 ft 205 kts 170°
2026-04-24 04:43 -7.03735 112.50439 7478 ft 203 kts 169°
2026-04-24 04:44 -7.05136 112.50599 7482 ft 203 kts 170°
2026-04-24 04:44 -7.06564 112.50762 7486 ft 204 kts 170°
2026-04-24 04:44 -7.07976 112.50922 7481 ft 203 kts 170°
2026-04-24 04:44 -7.09362 112.51078 7476 ft 196 kts 170°
2026-04-24 04:45 -7.10697 112.51228 7474 ft 190 kts 170°
2026-04-24 04:45 -7.12034 112.51382 7482 ft 192 kts 170°
2026-04-24 04:45 -7.13384 112.51537 7483 ft 192 kts 170°
2026-04-24 04:45 -7.14713 112.51688 7468 ft 193 kts 170°
2026-04-24 04:46 -7.16075 112.51840 7334 ft 195 kts 170°
2026-04-24 04:46 -7.17422 112.51990 7117 ft 190 kts 170°
2026-04-24 04:46 -7.18721 112.52138 6900 ft 187 kts 169°
2026-04-24 04:46 -7.20020 112.52286 6681 ft 186 kts 170°
2026-04-24 04:47 -7.21327 112.52432 6446 ft 186 kts 169°
2026-04-24 04:47 -7.22610 112.52579 6228 ft 185 kts 170°
2026-04-24 04:47 -7.23897 112.52725 6011 ft 185 kts 169°
2026-04-24 04:47 -7.25179 112.52872 5784 ft 184 kts 169°
2026-04-24 04:48 -7.26452 112.53016 5651 ft 181 kts 169°
2026-04-24 04:48 -7.27725 112.53161 5606 ft 183 kts 169°
2026-04-24 04:48 -7.29020 112.53308 5545 ft 185 kts 169°
2026-04-24 04:48 -7.30281 112.53452 5492 ft 184 kts 170°
2026-04-24 04:49 -7.31538 112.53593 5439 ft 183 kts 170°
2026-04-24 04:49 -7.32772 112.53887 5376 ft 179 kts 149°
2026-04-24 04:49 -7.33699 112.54675 5300 ft 173 kts 122°
2026-04-24 04:49 -7.34279 112.55734 5018 ft 175 kts 108°
2026-04-24 04:50 -7.34543 112.56911 4514 ft 172 kts 94°
2026-04-24 04:50 -7.34676 112.58102 4063 ft 168 kts 95°
2026-04-24 04:50 -7.34836 112.59238 3624 ft 164 kts 96°
2026-04-24 04:50 -7.35043 112.60365 3230 ft 158 kts 98°
2026-04-24 04:51 -7.35229 112.61399 3066 ft 148 kts 96°
2026-04-24 04:51 -7.35391 112.62457 2940 ft 155 kts 96°
2026-04-24 04:51 -7.35555 112.63545 2733 ft 159 kts 96°
2026-04-24 04:51 -7.35729 112.64649 2497 ft 157 kts 96°
2026-04-24 04:52 -7.35895 112.65720 2286 ft 157 kts 96°
2026-04-24 04:52 -7.36057 112.66801 2082 ft 156 kts 96°
2026-04-24 04:52 -7.36277 112.67868 1968 ft 153 kts 99°
2026-04-24 04:52 -7.36498 112.68935 1995 ft 155 kts 96°
2026-04-24 04:53 -7.36572 112.70019 1971 ft 157 kts 91°
2026-04-24 04:53 -7.36741 112.71140 1599 ft 167 kts 99°
2026-04-24 04:53 -7.36956 112.72285 1146 ft 162 kts 98°
2026-04-24 04:53 -7.37127 112.73370 790 ft 152 kts 98°
2026-04-24 04:54 -7.37321 112.74382 541 ft 146 kts 101°
2026-04-24 04:54 -7.37462 112.75446 404 ft 151 kts 99°
2026-04-24 04:54 -7.37624 112.76473 193 ft 146 kts 101°
2026-04-24 04:54 -7.37787 112.77458 27 ft 139 kts 100°
2026-04-24 04:55 -7.37914 112.78259 12 ft 82 kts 98°
2026-04-24 04:55 -7.37990 112.78738 12 ft 64 kts 99°
2026-04-24 04:55 -7.38039 112.79127 9 ft 50 kts 89°
2026-04-24 04:55 -7.37935 112.79423 9 ft 33 kts 33°
2026-04-24 04:56 -7.37835 112.79427 9 ft 16 kts
2026-04-24 04:56 -7.37706 112.79446 9 ft 18 kts 11°
2026-04-24 04:56 -7.37609 112.79464 9 ft 7 kts
2026-04-24 04:56 -7.37597 112.79466 9 ft 0 kts
2026-04-24 04:58 -7.37595 112.79466 9 ft 0 kts